Lancaster, PA

9:57 AM EDT on July 27, 2017 (GMT -0400)
Lancaster

Weather History for KLNS - March, 2014

Change the Weather History Date:

Saturday, March 15, 2014

  Actual Average Record
Temperature  
Mean Temperature 49 °F -  
Max Temperature 57 °F 51 °F 80 °F (1990)
Min Temperature 39 °F 31 °F 11 °F (1993)
Degree Days  
Heating Degree Days 16    
Moisture  
Dew Point 25 °F    
Average Humidity 41    
Maximum Humidity 55    
Minimum Humidity 29    
Precipitation  
Precipitation 0.00 in - - ()
Sea Level Pressure  
Sea Level Pressure 29.87 in    
Wind  
Wind Speed 10 mph (West)    
Max Wind Speed 23 mph    
Max Gust Speed 31 mph    
Visibility 10 miles    
Events      
Averages and records for this station are not official NWS values.
T = Trace of Precipitation, MM = Missing Value Source: NWS Daily Summary

Daily Weather History Graph

Daily Weather History Graph

Search for Another Location

Airport or City:

Trip Planner

Search our weather history database for the weather conditions in past years. The results will help you decide how hot, cold, wet, or windy it might be!

Date:

Astronomy

Mar. 15, 2014 Rise Set
Actual Time 7:16 AM EDT 7:12 PM EDT
Civil Twilight 6:49 AM EDT 7:39 PM EDT
Nautical Twilight 6:18 AM EDT 8:10 PM EDT
Astronomical Twilight 5:46 AM EDT 8:42 PM EDT
Moon 6:29 PM EDT (3/15) 6:27 AM EDT (3/15)
Length of Visible Light 12h 49m
Length of Day
11h 55m
Waxing Gibbous, 99% of the Moon is Illuminated
Mar 15
Waxing Gibbous
Mar 16
Full
Mar 23
Last Quarter
Mar 30
New
Apr 7
First Quarter

Hourly Weather History & Observations

Time (EDT) Temp. Windchill Dew Point Humidity Pressure Visibility Wind Dir Wind Speed Gust Speed Precip Events Conditions
12:53 AM 45.0 °F 43.5 °F 25.0 °F 46% 29.83 in 10.0 mi South 3.5 mph - N/A   Overcast
1:53 AM 45.0 °F 40.6 °F 25.0 °F 46% 29.81 in 10.0 mi South 8.1 mph - N/A   Overcast
2:53 AM 46.0 °F 40.6 °F 23.0 °F 40% 29.78 in 10.0 mi South 11.5 mph - N/A   Overcast
3:53 AM 46.0 °F 42.5 °F 23.0 °F 40% 29.77 in 10.0 mi Variable 6.9 mph - N/A   Partly Cloudy
4:53 AM 46.0 °F 40.2 °F 23.0 °F 40% 29.76 in 10.0 mi SSW 12.7 mph - N/A   Scattered Clouds
5:53 AM 46.0 °F 41.9 °F 23.0 °F 40% 29.77 in 10.0 mi SW 8.1 mph - N/A   Mostly Cloudy
6:53 AM 44.1 °F 42.5 °F 25.0 °F 47% 29.81 in 10.0 mi West 3.5 mph - N/A   Overcast
7:53 AM 44.1 °F 41.5 °F 27.0 °F 51% 29.81 in 10.0 mi SSW 4.6 mph - 0.00 in   Overcast
8:53 AM 46.0 °F 43.9 °F 28.9 °F 51% 29.81 in 10.0 mi Variable 4.6 mph - N/A   Overcast
9:53 AM 53.1 °F - 32.0 °F 45% 29.82 in 10.0 mi West 21.9 mph 28.8 mph N/A   Partly Cloudy
10:53 AM 54.0 °F - 30.0 °F 40% 29.84 in 10.0 mi West 18.4 mph - N/A   Partly Cloudy
11:53 AM 55.9 °F - 28.0 °F 34% 29.85 in 10.0 mi WNW 20.7 mph 25.3 mph N/A   Scattered Clouds
12:53 PM 55.0 °F - 27.0 °F 34% 29.86 in 10.0 mi West 16.1 mph 24.2 mph N/A   Mostly Cloudy
1:53 PM 57.0 °F - 27.0 °F 32% 29.86 in 10.0 mi WNW 18.4 mph 26.5 mph N/A   Scattered Clouds
2:53 PM 57.0 °F - 27.0 °F 32% 29.86 in 10.0 mi NW 18.4 mph 24.2 mph N/A   Partly Cloudy
3:53 PM 57.0 °F - 26.1 °F 30% 29.86 in 10.0 mi WNW 16.1 mph 25.3 mph N/A   Partly Cloudy
4:53 PM 55.9 °F - 24.1 °F 29% 29.87 in 10.0 mi WNW 23.0 mph 31.1 mph N/A   Partly Cloudy
5:53 PM 54.0 °F - 23.0 °F 30% 29.90 in 10.0 mi NW 15.0 mph 24.2 mph N/A   Clear
6:53 PM 50.0 °F - 24.1 °F 36% 29.95 in 10.0 mi NW 13.8 mph - N/A   Clear
7:53 PM 46.9 °F - 23.0 °F 39% 29.98 in 10.0 mi NW 11.5 mph - N/A   Clear
8:53 PM 45.0 °F 39.7 °F 23.0 °F 42% 30.00 in 10.0 mi NNW 10.4 mph - N/A   Clear
9:53 PM 43.0 °F 38.2 °F 23.0 °F 45% 30.02 in 10.0 mi NNW 8.1 mph - N/A   Clear
10:53 PM 41.0 °F 35.2 °F 23.0 °F 49% 30.04 in 10.0 mi NNW 9.2 mph - N/A   Clear
11:53 PM 39.9 °F 34.5 °F 25.0 °F 55% 30.06 in 10.0 mi NW 8.1 mph - N/A   Clear